Weather History for Manitowoc, WI

Change the Weather History Date:

Thursday, May 15, 2014

  Actual Average Record
Temperature  
Mean Temperature 42 °F -  
Max Temperature 48 °F 64 °F 83 °F (1991)
Min Temperature 35 °F 44 °F 35 °F (1973)
Degree Days  
Heating Degree Days 22    
Moisture  
Dew Point 34 °F    
Average Humidity 73    
Maximum Humidity 93    
Minimum Humidity 56    
Precipitation  
Precipitation 0.00 in - - ()
Sea Level Pressure  
Sea Level Pressure 30.08 in    
Wind  
Wind Speed 13 mph (North)    
Max Wind Speed 23 mph    
Max Gust Speed 32 mph    
Visibility 10 miles    
Events Rain    
Averages and records for this station are not official NWS values.
T = Trace of Precipitation, MM = Missing Value Source: NWS Daily Summary

Daily Weather History Graph

Daily Weather History Graph

Search for Another Location

Airport:

Trip Planner

Search our weather history database for the weather conditions in past years. The results will help you decide how hot, cold, wet, or windy it might be!

Date:

Astronomy

May. 15, 2014 Rise Set
Actual Time 5:24 AM CDT 8:10 PM CDT
Civil Twilight 4:50 AM CDT 8:44 PM CDT
Nautical Twilight 4:08 AM CDT 9:26 PM CDT
Astronomical Twilight 3:19 AM CDT 10:16 PM CDT
Moon 9:18 PM CDT (5/15) 6:11 AM CDT (5/15)
Length of Visible Light 15h 53m
Length of Day
14h 46m
Full, 99% of the Moon is Illuminated
May 15
Full
May 21
Last Quarter
May 28
New
Jun 5
First Quarter
Jun 12
Full

Hourly Weather History & Observations

Time (CDT) Temp. Windchill Dew Point Humidity Pressure Visibility Wind Dir Wind Speed Gust Speed Precip Events Conditions
12:56 AM 44.1 °F 37.7 °F 33.1 °F 65% 30.14 in 10.0 mi NNE 12.7 mph 25.3 mph N/A   Overcast
1:56 AM 41.0 °F 33.5 °F 34.0 °F 76% 30.15 in 10.0 mi NE 13.8 mph 21.9 mph 0.00 in Rain Light Rain
2:56 AM 39.0 °F 31.4 °F 36.0 °F 89% 30.15 in 10.0 mi NNE 12.7 mph 17.3 mph 0.00 in Rain Light Rain
3:56 AM 39.9 °F 33.4 °F 34.0 °F 79% 30.12 in 10.0 mi NNE 10.4 mph - 0.00 in Rain Light Rain
4:56 AM 39.9 °F 31.8 °F 34.0 °F 79% 30.09 in 10.0 mi North 15.0 mph - 0.00 in Rain Light Rain
5:56 AM 39.0 °F 32.8 °F 35.1 °F 86% 30.09 in 10.0 mi North 9.2 mph - 0.00 in Rain Light Rain
6:30 AM 37.4 °F 29.3 °F 35.6 °F 93% 30.00 in 10.0 mi North 12.7 mph 19.6 mph 0.00 in Rain Light Rain
6:56 AM 39.0 °F 30.3 °F 35.1 °F 86% 30.08 in 10.0 mi North 16.1 mph 21.9 mph 0.00 in Rain Light Rain
7:56 AM 39.0 °F 31.4 °F 35.1 °F 86% 30.06 in 10.0 mi NNW 12.7 mph 19.6 mph 0.00 in Rain Light Rain
8:56 AM 41.0 °F 35.2 °F 34.0 °F 76% 30.05 in 10.0 mi NNW 9.2 mph - 0.00 in   Overcast
9:56 AM 43.0 °F 36.0 °F 33.1 °F 68% 30.03 in 10.0 mi NNW 13.8 mph - N/A   Overcast
10:56 AM 45.0 °F 38.2 °F 33.1 °F 63% 30.03 in 10.0 mi North 15.0 mph - 0.00 in Rain Rain
11:56 AM 46.0 °F 38.5 °F 34.0 °F 63% 30.03 in 10.0 mi North 19.6 mph 28.8 mph N/A   Overcast
12:56 PM 46.9 °F - 33.1 °F 59% 30.04 in 10.0 mi North 18.4 mph 28.8 mph N/A   Overcast
1:56 PM 46.9 °F - 32.0 °F 56% 30.03 in 10.0 mi North 23.0 mph 29.9 mph N/A   Overcast
2:56 PM 48.0 °F - 33.1 °F 56% 30.04 in 10.0 mi North 16.1 mph 32.2 mph N/A   Overcast
3:56 PM 48.0 °F - 34.0 °F 58% 30.05 in 10.0 mi North 15.0 mph 25.3 mph N/A   Mostly Cloudy
4:56 PM 48.0 °F - 34.0 °F 58% 30.06 in 10.0 mi North 15.0 mph - N/A   Overcast
5:56 PM 46.9 °F - 34.0 °F 61% 30.07 in 10.0 mi North 15.0 mph - N/A   Overcast
6:56 PM 45.0 °F 38.9 °F 34.0 °F 65% 30.09 in 10.0 mi North 12.7 mph - N/A   Mostly Cloudy
7:56 PM 43.0 °F 38.2 °F 32.0 °F 65% 30.12 in 10.0 mi North 8.1 mph - N/A   Clear
8:56 PM 41.0 °F 35.8 °F 32.0 °F 70% 30.14 in 10.0 mi North 8.1 mph - N/A   Overcast
9:56 PM 37.9 °F - 34.0 °F 86% 30.14 in 10.0 mi Calm Calm - N/A   Partly Cloudy
10:56 PM 37.0 °F 34.5 °F 34.0 °F 89% 30.15 in 10.0 mi WSW 3.5 mph - N/A   Mostly Cloudy
11:56 PM 35.1 °F - 33.1 °F 92% 30.14 in 10.0 mi Calm Calm - N/A   Clear